Terminal Aerodrome Forecast
Issued by NWS Boston, MA

Home | Current Version | Previous Version | Text Only | Print | Product List | Glossary On
Versions: 1 2 3 4 5 6 7 8 9 10 11 12 13 14 15 16 17 18 19 20 21 22 23 24 25 26 27 28 29 30 31 32 33 34 35 36 37 38 39 40 41
000
FTUS41 KBOX 031120
TAFBDL
TAF
KBDL 031120Z 0312/0418 00000KT 6SM BR FEW110
     FM031300 04003KT P6SM SCT250
     FM032000 36005KT P6SM VCTS BKN050CB
     FM040000 VRB03KT P6SM BKN070
     FM041100 02007KT P6SM BKN025
     FM041500 03007KT P6SM SCT025=

USA.gov is the U.S. government's official web portal to all federal, state and local government web resources and services.